FW3096 Weather Reports


time (UTC)temp
C
wind
direction
speed
KPH
gust
KPH
rain 1hr
cm
rain 24hr
cm
rain mn
cm
humidity
%
barometer
mb
20260505035508 15 188 0.0 1.6 0.00 0.00 0.00 64 1011.8
20260505035009 15 188 0.0 0.0 0.00 0.00 0.00 63 1011.8
20260505034509 15 188 0.0 0.0 0.00 0.00 0.00 63 1011.8
20260505034009 15 188 0.0 3.2 0.00 0.00 0.00 62 1011.9
20260505033508 15 188 0.0 4.8 0.00 0.00 0.00 62 1011.9
20260505033010 15 196 0.0 0.0 0.00 0.00 0.00 62 1011.9
20260505032508 15 196 0.0 0.0 0.00 0.00 0.00 62 1012.0
20260505032009 15 196 0.0 4.8 0.00 0.00 0.00 62 1011.9
20260505031510 15 217 0.0 3.2 0.00 0.00 0.00 62 1011.8
20260505031010 15 125 0.0 3.2 0.00 0.00 0.00 62 1011.9
20260505025508 15 157 1.6 3.2 0.00 0.00 0.00 63 1011.8
20260505024509 15 167 0.0 6.4 0.00 0.00 0.00 62 1012.1
20260505024009 15 196 1.6 6.4 0.00 0.00 0.00 62 1012.1
20260505023508 15 146 0.0 4.8 0.00 0.00 0.00 61 1012.1
20260505023011 15 137 0.0 0.0 0.00 0.00 0.00 61 1012.1
20260505022508 16 137 0.0 0.0 0.00 0.00 0.00 61 1012.1
20260505022018 16 137 0.0 0.0 0.00 0.00 0.00 61 1012.2
20260505020508 16 137 0.0 0.0 0.00 0.00 0.00 60 1012.2
20260505020018 16 137 0.0 3.2 0.00 0.00 0.00 59 1012.2
20260505015508 16 137 0.0 3.2 0.00 0.00 0.00 59 1012.2
20260505014508 16 134 0.0 1.6 0.00 0.00 0.00 59 1011.9
20260505014026 16 134 0.0 1.6 0.00 0.00 0.00 59 1012.0
20260505013508 16 132 0.0 0.0 0.00 0.00 0.00 59 1012.1
20260505013010 17 132 0.0 0.0 0.00 0.00 0.00 59 1012.2
20260505012010 17 132 0.0 0.0 0.00 0.00 0.00 58 1012.0
20260505011510 17 132 0.0 1.6 0.00 0.00 0.00 58 1011.9
20260505011018 17 132 0.0 1.6 0.00 0.00 0.00 58 1011.9
20260505010019 17 152 0.0 1.6 0.00 0.00 0.00 57 1011.7
20260505004509 17 136 0.0 6.4 0.00 0.00 0.00 57 1011.6
20260505004018 17 139 0.0 6.4 0.00 0.00 0.00 56 1011.6
20260505003508 17 159 0.0 0.0 0.00 0.00 0.00 55 1011.4
20260505003022 17 159 0.0 0.0 0.00 0.00 0.00 54 1011.3
20260505002508 17 159 0.0 0.0 0.00 0.00 0.00 53 1011.3
20260505002019 17 24 0.0 0.0 0.00 0.00 0.00 53 1011.2
20260505000508 18 24 0.0 0.0 0.00 0.00 0.00 48 1011.2
20260505000024 19 24 0.0 1.6 0.00 0.00 0.00 48 1011.0
20260504235508 19 24 0.0 3.2 0.00 0.00 0.00 48 1011.0
20260504235024 20 24 0.0 4.8 0.00 0.00 0.00 46 1010.9
20260504234510 20 50 1.6 6.4 0.00 0.00 0.00 47 1010.9
20260504234010 20 235 0.0 6.4 0.00 0.00 0.00 46 1010.9
20260504233508 20 216 1.6 4.8 0.00 0.00 0.00 45 1011.0
20260504233011 20 227 1.6 11.3 0.00 0.00 0.00 44 1010.9
20260504232508 20 240 1.6 9.7 0.00 0.00 0.00 44 1010.9
20260504232009 21 266 3.2 9.7 0.00 0.00 0.00 43 1010.9
20260504231008 21 269 4.8 9.7 0.00 0.00 0.00 42 1010.7
20260504230508 21 178 3.2 9.7 0.00 0.00 0.00 43 1010.8
20260504225507 21 71 1.6 9.7 0.00 0.00 0.00 43 1010.8
20260504225008 21 267 4.8 12.9 0.00 0.00 0.00 42 1010.7
20260504224509 21 208 3.2 12.9 0.00 0.00 0.00 42 1010.7
20260504224008 21 247 3.2 8.0 0.00 0.00 0.00 42 1010.7
20260504223507 21 165 3.2 8.0 0.00 0.00 0.00 41 1010.7
20260504223009 21 220 1.6 8.0 0.00 0.00 0.00 41 1010.7
20260504222507 21 186 3.2 8.0 0.00 0.00 0.00 41 1010.8
20260504222009 21 132 1.6 14.5 0.00 0.00 0.00 41 1010.9
20260504221508 21 248 4.8 14.5 0.00 0.00 0.00 40 1010.9
20260504221010 21 217 4.8 11.3 0.00 0.00 0.00 39 1010.9
20260504220507 21 124 3.2 9.7 0.00 0.00 0.00 40 1010.9
20260504220011 22 137 3.2 9.7 0.00 0.00 0.00 41 1010.9
20260504215507 22 262 3.2 14.5 0.00 0.00 0.00 40 1010.9
20260504215008 22 163 4.8 14.5 0.00 0.00 0.00 41 1011.1
20260504214008 22 250 6.4 19.3 0.00 0.00 0.00 39 1011.1
20260504213507 22 25 3.2 14.5 0.00 0.00 0.00 39 1011.2
20260504213009 22 294 6.4 14.5 0.00 0.00 0.00 38 1011.2
20260504212507 22 355 3.2 12.9 0.00 0.00 0.00 40 1011.2
20260504212008 22 269 3.2 14.5 0.00 0.00 0.00 40 1011.1
20260504211509 22 288 6.4 14.5 0.00 0.00 0.00 39 1011.2
20260504211008 22 93 1.6 16.1 0.00 0.00 0.00 42 1011.2
20260504205507 22 213 4.8 16.1 0.00 0.00 0.00 41 1011.3
20260504205008 22 268 4.8 16.1 0.00 0.00 0.00 38 1011.3
20260504204508 22 333 1.6 8.0 0.00 0.00 0.00 40 1011.2
20260504204008 22 201 3.2 20.9 0.00 0.00 0.00 39 1011.2
20260504203507 22 267 4.8 20.9 0.00 0.00 0.00 41 1011.3
20260504203010 22 185 8.0 16.1 0.00 0.00 0.00 41 1011.4
20260504202507 22 69 1.6 11.3 0.00 0.00 0.00 42 1011.4
20260504202008 22 292 6.4 14.5 0.00 0.00 0.00 40 1011.4
20260504201509 22 258 4.8 17.7 0.00 0.00 0.00 41 1011.5
20260504201009 22 81 6.4 14.5 0.00 0.00 0.00 39 1011.6
20260504195507 22 208 3.2 17.7 0.00 0.00 0.00 40 1011.7
20260504195009 22 66 4.8 19.3 0.00 0.00 0.00 40 1011.7
20260504194508 22 272 4.8 19.3 0.00 0.00 0.00 39 1011.6
20260504194008 22 284 3.2 12.9 0.00 0.00 0.00 40 1011.7
20260504193507 22 240 4.8 12.9 0.00 0.00 0.00 41 1011.7
20260504193009 22 144 3.2 16.1 0.00 0.00 0.00 37 1011.7
20260504192507 22 293 8.0 16.1 0.00 0.00 0.00 38 1012.0
20260504191509 22 5 6.4 16.1 0.00 0.00 0.00 40 1012.1
20260504191009 22 276 6.4 24.1 0.00 0.00 0.00 37 1012.0
20260504190010 22 125 4.8 11.3 0.00 0.00 0.00 38 1012.0
20260504185507 21 98 4.8 12.9 0.00 0.00 0.00 38 1012.1
20260504185009 21 319 3.2 14.5 0.00 0.00 0.00 40 1012.1
20260504184507 21 182 8.0 14.5 0.00 0.00 0.00 39 1012.1
20260504184009 21 163 3.2 9.7 0.00 0.00 0.00 40 1012.3
20260504183507 21 130 4.8 11.3 0.00 0.00 0.00 40 1012.4
20260504183008 21 84 4.8 9.7 0.00 0.00 0.00 41 1012.4
20260504182507 21 231 6.4 24.1 0.00 0.00 0.00 40 1012.4
20260504182010 21 84 9.7 24.1 0.00 0.00 0.00 40 1012.6
20260504181507 21 321 4.8 16.1 0.00 0.00 0.00 44 1012.8
20260504180508 21 260 4.8 9.7 0.00 0.00 0.00 45 1013.0
20260504180009 21 181 4.8 16.1 0.00 0.00 0.00 41 1013.0
20260504175507 21 291 6.4 16.1 0.00 0.00 0.00 40 1013.0
20260504175009 21 329 8.0 16.1 0.00 0.00 0.00 38 1013.1
20260504174507 21 296 3.2 9.7 0.00 0.00 0.00 40 1013.1
20260504174009 21 183 6.4 14.5 0.00 0.00 0.00 41 1013.3
20260504173507 21 82 4.8 16.1 0.00 0.00 0.00 38 1013.3
20260504172509 21 281 4.8 12.9 0.00 0.00 0.00 42 1013.3
20260504172008 21 244 3.2 14.5 0.00 0.00 0.00 39 1013.4
20260504171507 20 28 4.8 14.5 0.00 0.00 0.00 42 1013.6
20260504170507 21 316 6.4 12.9 0.00 0.00 0.00 41 1013.6
20260504151008 18 286 4.8 12.9 0.00 0.00 0.00 46 1014.9
20260504150509 18 317 3.2 11.3 0.00 0.00 0.00 49 1014.9
20260504140507 16 200 3.2 9.7 0.00 0.00 0.00 57 1014.9
20260504130507 13 98 3.2 9.7 0.00 0.00 0.00 68 1015.4
20260504110507 5 90 0.0 0.0 0.00 0.00 0.00 89 1016.0
20260504100508 5 90 0.0 3.2 0.00 0.00 0.00 87 1016.1
20260504082007 5 178 0.0 0.0 0.00 0.00 0.00 85 1016.1
20260504081508 5 178 0.0 3.2 0.00 0.00 0.00 85 1016.0
20260504081007 5 178 0.0 3.2 0.00 0.00 0.00 85 1016.0
20260504080506 5 178 1.6 3.2 0.00 0.00 0.00 85 1015.9
20260504050506 6 292 0.0 0.0 0.00 0.00 0.00 75 1016.0
20260504050009 6 292 0.0 0.0 0.00 0.00 0.00 75 1016.1
20260504045506 6 292 0.0 0.0 0.00 0.00 0.00 74 1016.0
20260504045007 6 292 0.0 0.0 0.00 0.00 0.00 74 1016.1
20260504044509 6 292 0.0 0.0 0.00 0.00 0.00 74 1015.9
20260504044009 6 292 0.0 0.0 0.00 0.00 0.00 74 1015.9
20260504043508 6 292 0.0 0.0 0.00 0.00 0.00 73 1015.9
20260504043010 6 292 0.0 0.0 0.00 0.00 0.00 73 1015.8
20260504042508 6 292 0.0 0.0 0.00 0.00 0.00 73 1015.7
20260504041509 6 292 0.0 0.0 0.00 0.00 0.00 73 1015.6
20260504040508 6 292 0.0 1.6 0.00 0.00 0.00 72 1015.6
20260504040019 6 292 0.0 1.6 0.00 0.00 0.00 72 1015.5